Location: The Saddle
(36.8333°N, 80.3417°W)
Time: 06:31:31
(UTC-04:00)

Courier 1B - Pass Details

Date: 28 January 2022
Orbit: 962 x 1209 km, 28.3° (Epoch: 22 May)

Event Time Altitude Azimuth Distance (km) Brightness Sun altitude
Rises 18:00:19 0° 233° (SW) 3,961 12.4 -4.2°
Reaches altitude 10° 18:03:21 10° 223° (SW) 3,038 11.3 -4.7°
Maximum altitude 18:09:56 33° 163° (SSE) 1,874 9.0 -6.0°
Drops below altitude 10° 18:16:43 10° 103° (ESE) 3,137 9.6 -7.3°
Enters shadow 18:18:15 - 98° (E) 3,593 9.9 -7.6°
